Regional Weather Roundup
Issued by NWS

Home | Current Version | Previous Version | Text Only | Print | Product List | Glossary On
Versions: 1 2 3 4 5 6 7 8 9 10 11 12 13 14 15 16 17 18 19 20 21 22 23 24 25 26 27 28 29 30 31 32 33 34 35 36 37 38 39 40 41 42 43 44 45 46 47 48 49 50
000
ASUS43 KTOP 161859
RWRKS

WEATHER ROUNDUP FOR KANSAS
NATIONAL WEATHER SERVICE GOODLAND KS
200 PM CDT WED AUG 16 2017

NOTE:  "FAIR" INDICATES FEW OR NO CLOUDS BELOW 12,000 FEET WITH NO
SIGNIFICANT WEATHER AND/OR OBSTRUCTIONS TO VISIBILITY.

KSZ001>006-013>018-027>032-041>047-162000-
NORTHWEST KANSAS

CITY           SKY/WX    TMP DP  RH WIND       PRES   REMARKS
GOODLAND       MOSUNNY   76  60  57 NW10G18   30.01F
HAYS           PTSUNNY   79  63  57 NW13      29.92F
HILL CITY      MOSUNNY   78  62  57 NW14      29.94S
RUSSELL        MOSUNNY   79  60  52 NW13G21   29.89F
$$

KSZ061>065-074>080-084>089-162000-
SOUTHWEST KANSAS

CITY           SKY/WX    TMP DP  RH WIND       PRES   REMARKS
DODGE CITY     SUNNY     84  60  44 NW13      29.94S
ELKHART          N/A     79  58  48 NW8         N/A
GARDEN CITY    SUNNY     81  58  45 NW13G24   29.97S
GREAT BEND     MOSUNNY   77  64  64 NW10      29.91S
LIBERAL        SUNNY     82  62  50 NW15      29.97S
$$

KSZ066>073-081>083-090>101-162000-
SOUTHEAST KANSAS

CITY           SKY/WX    TMP DP  RH WIND       PRES   REMARKS
CHANUTE        SUNNY     84  74  71 SE12      29.84F
COFFEYVILLE    MOSUNNY   80  73  79 E6        29.85F
HUTCHINSON     CLOUDY    80  70  71 N10       29.86R
MEDICINE LODGE   N/A     88  71  57 S8        29.83S
NEWTON         CLOUDY    83  74  74 W7        29.86S
WICHITA INTL   PTSUNNY   87  75  67 S8        29.83R HX  96
WICHITA JABRA  PTSUNNY   84  75  74 S8        29.84S
WICHITA MCCONL PTSUNNY   85  73  68 S8        29.84R
WINFIELD       PTSUNNY   87  75  67 S12       29.84F HX  96
$$

KSZ007>012-019>026-033>040-048>060-102>105-162000-
NORTHEAST KANSAS

CITY           SKY/WX    TMP DP  RH WIND       PRES   REMARKS
CONCORDIA      PTSUNNY   77  65  66 W15       29.86F
EMPORIA        PTSUNNY   82  72  71 SW12      29.83R
LAWRENCE       SUNNY     83  72  69 W8        29.80S
MANHATTAN      PTSUNNY   81  66  60 W7        29.84R
OLATHE IND     MOSUNNY   85  71  63 S12       29.81S
OLATHE EXE     SUNNY     85  71  63 S8        29.82R
SALINA         CLOUDY    80  65  59 NW10      29.87F
TOPEKA BILLARD MOSUNNY   84  72  67 SW15      29.81S
TOPEKA FORBES  MOSUNNY   84  73  69 W14       29.82S
$$




USA.gov is the U.S. government's official web portal to all federal, state and local government web resources and services.